Weather History for Prestwick, United Kingdom

Change the Weather History Date:

Wednesday, January 23, 2013

  Actual Average Record
Temperature  
Mean Temperature 32 °F -  
Max Temperature 37 °F 45 °F 55 °F (2008)
Min Temperature 26 °F 34 °F 23 °F (2005)
Degree Days  
Heating Degree Days 34    
Moisture  
Dew Point 30 °F    
Average Humidity 87    
Maximum Humidity 93    
Minimum Humidity 81    
Precipitation  
Precipitation 0.00 in - - ()
Sea Level Pressure  
Sea Level Pressure 29.86 in    
Wind  
Wind Speed 3 mph ()    
Max Wind Speed 13 mph    
Max Gust Speed -    
Visibility 6.0 miles    
Events      
Averages and records for this station are not official NWS values.
T = Trace of Precipitation, MM = Missing Value Source: Averaged Metar Reports

Daily Weather History Graph

Daily Weather History Graph

Search for Another Location

Airport:

Trip Planner

Search our weather history database for the weather conditions in past years. The results will help you decide how hot, cold, wet, or windy it might be!

Date:

Astronomy

Jan. 23, 2013 Rise Set
Actual Time 8:26 AM GMT 4:34 PM GMT
Civil Twilight 7:43 AM GMT 5:17 PM GMT
Nautical Twilight 6:58 AM GMT 6:02 PM GMT
Astronomical Twilight 6:15 AM GMT 6:46 PM GMT
Moon 1:24 PM GMT (1/23) 5:35 AM GMT (1/23)
Length of Visible Light 9h 33m
Length of Day
8h 08m
Waxing Gibbous, 88% of the Moon is Illuminated
Jan 23
Waxing Gibbous
Jan 27
Full
Feb 3
Last Quarter
Feb 10
New
Feb 17
First Quarter

Hourly Weather History & Observations

Time (GMT) Temp. Windchill Dew Point Humidity Pressure Visibility Wind Dir Wind Speed Gust Speed Precip Events Conditions
12:50 AM 26.6 °F - 24.8 °F 93% 29.83 in 6.2 mi Calm Calm - N/A   Partly Cloudy
1:50 AM 28.4 °F - 26.6 °F 93% 29.83 in 6.2 mi Calm Calm - N/A   Partly Cloudy
2:50 AM 30.2 °F - 28.4 °F 93% 29.83 in 6.2 mi Calm Calm - N/A   Mostly Cloudy
3:20 AM 30.2 °F - 28.4 °F 93% 29.83 in 6.2 mi Calm Calm - N/A   Mostly Cloudy
3:50 AM 30.2 °F - 28.4 °F 93% 29.83 in 6.2 mi Calm Calm - N/A   Mostly Cloudy
4:50 AM 30.2 °F - 28.4 °F 93% 29.83 in 6.2 mi Calm Calm - N/A   Mostly Cloudy
5:50 AM 32.0 °F 28.7 °F 30.2 °F 93% 29.83 in 6.2 mi ENE 3.5 mph - N/A   Mostly Cloudy
6:20 AM 32.0 °F - 30.2 °F 93% 29.83 in 6.2 mi ENE 2.3 mph - N/A   Mostly Cloudy
6:50 AM 33.8 °F - 32.0 °F 93% 29.83 in 6.2 mi Calm Calm - N/A   Mostly Cloudy
7:20 AM 33.8 °F - 30.2 °F 87% 29.83 in 6.2 mi NE 2.3 mph - N/A   Mostly Cloudy
7:50 AM 32.0 °F - 30.2 °F 93% 29.83 in 6.2 mi NE 2.3 mph - N/A   Mostly Cloudy
8:20 AM 33.8 °F 29.6 °F 30.2 °F 87% 29.83 in 5.0 mi ENE 4.6 mph - N/A   Mostly Cloudy
8:50 AM 33.8 °F 30.8 °F 30.2 °F 87% 29.83 in 5.0 mi East 3.5 mph - N/A   Mostly Cloudy
9:20 AM 33.8 °F - 30.2 °F 87% 29.83 in 5.0 mi East 2.3 mph - N/A   Mostly Cloudy
9:50 AM 33.8 °F - 32.0 °F 93% 29.83 in 5.0 mi Calm Calm - N/A   Mostly Cloudy
10:20 AM 35.6 °F 31.7 °F 32.0 °F 87% 29.83 in 5.0 mi East 4.6 mph - N/A   Mostly Cloudy
10:50 AM 37.4 °F 31.4 °F 32.0 °F 81% 29.83 in 5.0 mi ESE 8.1 mph - N/A   Mostly Cloudy
11:20 AM 35.6 °F 27.1 °F 30.2 °F 81% 29.86 in 5.0 mi East 12.7 mph - N/A   Mostly Cloudy
11:50 AM 37.4 °F 33.8 °F 32.0 °F 81% 29.86 in 6.2 mi East 4.6 mph - N/A   Mostly Cloudy
12:20 PM 37.4 °F 30.3 °F 32.0 °F 81% 29.86 in 6.2 mi East 10.4 mph - N/A   Mostly Cloudy
12:50 PM 37.4 °F 30.8 °F 32.0 °F 81% 29.86 in 6.2 mi East 9.2 mph - N/A   Mostly Cloudy
1:20 PM 37.4 °F 32.1 °F 32.0 °F 81% 29.86 in 6.2 mi East 6.9 mph - N/A   Partly Cloudy
1:50 PM 37.4 °F 33.8 °F 32.0 °F 81% 29.86 in 6.2 mi East 4.6 mph - N/A   Partly Cloudy
2:20 PM 35.6 °F 32.8 °F 32.0 °F 87% 29.86 in 6.2 mi East 3.5 mph - N/A   Partly Cloudy
2:50 PM 35.6 °F 31.7 °F 32.0 °F 87% 29.86 in 6.2 mi East 4.6 mph - N/A   Partly Cloudy
3:20 PM 37.4 °F 33.8 °F 32.0 °F 81% 29.86 in 6.2 mi East 4.6 mph - N/A   Partly Cloudy
3:50 PM 35.6 °F - 32.0 °F 87% 29.86 in 6.2 mi East 2.3 mph - N/A   Partly Cloudy
4:20 PM 35.6 °F 32.8 °F 30.2 °F 81% 29.86 in 6.2 mi ENE 3.5 mph - N/A   Partly Cloudy
4:50 PM 35.6 °F 31.7 °F 30.2 °F 81% 29.86 in 6.2 mi ENE 4.6 mph - N/A   Mostly Cloudy
5:20 PM 35.6 °F 30.7 °F 30.2 °F 81% 29.86 in 6.2 mi ENE 5.8 mph - N/A   Scattered Clouds
5:50 PM 35.6 °F 30.7 °F 30.2 °F 81% 29.86 in 6.2 mi ENE 5.8 mph - N/A   Mostly Cloudy
6:20 PM 35.6 °F 31.7 °F 30.2 °F 81% 29.86 in 6.2 mi ENE 4.6 mph - N/A   Mostly Cloudy
6:50 PM 35.6 °F 31.7 °F 30.2 °F 81% 29.89 in 6.2 mi ENE 4.6 mph - N/A   Partly Cloudy
7:20 PM 33.8 °F 30.8 °F 30.2 °F 87% 29.89 in 6.2 mi ENE 3.5 mph - N/A   Partly Cloudy
7:50 PM 33.8 °F 29.6 °F 30.2 °F 87% 29.89 in 6.2 mi ENE 4.6 mph - N/A   Scattered Clouds
8:20 PM 33.8 °F 30.8 °F 30.2 °F 87% 29.89 in 6.2 mi ENE 3.5 mph - N/A   Scattered Clouds
8:50 PM 33.8 °F 29.6 °F 30.2 °F 87% 29.92 in 6.2 mi ENE 4.6 mph - N/A   Mostly Cloudy
9:20 PM 33.8 °F 30.8 °F 30.2 °F 87% 29.92 in 6.2 mi ENE 3.5 mph - N/A   Mostly Cloudy
9:50 PM 33.8 °F 30.8 °F 30.2 °F 87% 29.92 in 6.2 mi ENE 3.5 mph - N/A   Mostly Cloudy
10:20 PM 33.8 °F - 30.2 °F 87% 29.92 in 6.2 mi Calm Calm - N/A   Mostly Cloudy
10:50 PM 33.8 °F - 30.2 °F 87% 29.92 in 6.2 mi East 2.3 mph - N/A   Mostly Cloudy
11:20 PM 33.8 °F - 30.2 °F 87% 29.95 in 6.2 mi Calm Calm - N/A   Mostly Cloudy
11:50 PM 33.8 °F - 30.2 °F 87% 29.95 in 6.2 mi Calm Calm - N/A   Mostly Cloudy